#timestamp,LO_Frequency,Hit,StdDev 
1459670415.3,286046997.5,N
1459670435.2,286047001.2,N
1459670455.0,286046996.7,N
1459670455.9,286046996.7,N
1459670475.7,286046997.4,N
1459670495.6,286046996.2,N
1459670515.4,286046992.3,Y
1459670535.2,286046993.7,P
1459670555.1,286046993.3,N
1459670556.0,286046993.3,N
1459670575.8,286046994.1,N
1459670595.6,286046994.6,N
1459670615.5,286046993.8,Y
1459670635.3,286047000.7,P
1459670655.1,286047000.9,N
1459670675.9,286046998.6,N
1459670695.7,286046999.7,N
1459670715.5,286047005.9,N
1459670735.4,286047005.8,N
1459670755.2,286047006.0,N
1459670775.0,286047003.1,N
1459670775.9,286047003.1,N
1459670795.8,286047001.7,N
1459670815.6,286047003.5,N
1459670835.4,286047005.1,N
1459670855.3,286047003.4,N
1459670875.1,286047004.2,N
1459670876.0,286047004.2,N
1459670895.8,286047001.5,N
1459670915.6,286047004.5,N
1459670935.5,286047008.3,N
1459670955.3,286047010.7,Y
1459670975.1,286047004.3,P
1459670995.9,286047001.8,N
1459671015.7,286047002.9,N
1459671035.5,286047001.6,N
1459671055.4,286047001.6,N
1459671075.2,286047003.3,Y
1459671095.0,286047000.5,P
1459671095.9,286047000.5,N
1459671115.8,286046999.4,N
1459671135.6,286046994.9,Y
1459671155.4,286046994.3,P
1459671175.3,286046994.2,N
1459671195.1,286046992.9,N
1459671215.8,286046990.9,N
1459671235.7,286046991.0,N
1459671255.5,286046992.2,N
1459671275.3,286046992.8,N
1459671295.2,286046992.4,N
1459671315.9,286046988.5,Y
1459671335.7,286046997.3,P
1459671355.6,286046999.1,N
1459671375.4,286047000.1,N
1459671395.2,286046998.9,N
1459671415.1,286046995.0,N
1459671416.0,286046995.0,N
1459671435.8,286046998.2,N
1459671455.6,286046998.6,N
1459671475.5,286046998.2,N
1459671495.3,286047003.2,N
1459671515.1,286047005.1,N
1459671535.8,286047005.6,N
1459671555.7,286047006.2,N
1459671575.5,286047008.9,N
1459671595.3,286047009.5,N
1459671615.2,286047010.8,N
1459671635.9,286047005.3,N
1459671655.7,286047006.0,N
1459671675.6,286047007.1,N
1459671695.4,286047007.2,N
1459671715.2,286047004.9,N
1459671735.1,286047006.8,N
1459671736.0,286047006.8,N
1459671755.8,286047005.7,N
1459671775.6,286047007.4,N
1459671795.5,286047005.6,N
1459671815.3,286047001.4,N
1459671835.1,286047004.0,N
1459671855.8,286047009.2,N
1459671875.7,286047009.2,N
1459671895.5,286047007.2,N
1459671915.3,286047009.1,N
1459671935.2,286047008.9,N
1459671955.9,286047006.1,N
1459671975.7,286047007.6,N
1459671995.6,286047005.8,N
1459672015.4,286047005.9,N
1459672035.2,286047005.0,N
1459672055.1,286047006.8,N
1459672056.0,286047006.8,Y
1459672075.8,286047002.7,P
1459672095.6,286046998.2,N
1459672115.5,286046999.5,N
1459672135.3,286046996.7,N
1459672155.1,286046996.9,N
1459672175.9,286046994.4,N
1459672195.7,286046990.8,N
1459672215.5,286046992.8,N
1459672235.4,286046994.5,N
1459672255.2,286046994.2,N
1459672275.0,286046995.3,N
1459672275.9,286046995.3,N
1459672295.7,286046994.7,N
1459672315.6,286046993.5,N
1459672335.4,286046996.1,N
1459672355.2,286046996.9,N
1459672375.1,286046997.7,N
1459672376.0,286046997.7,N
1459672395.8,286046996.1,N
1459672415.6,286046991.9,N
1459672435.5,286046992.2,N
1459672455.3,286046992.7,N
1459672475.1,286046991.1,N
1459672495.9,286046992.5,N
1459672515.7,286046995.9,N
1459672535.5,286046993.8,N
1459672555.3,286046994.0,N
1459672575.2,286046995.8,N
1459672595.0,286046996.2,N
1459672595.9,286046996.2,N
1459672615.7,286046997.0,N
1459672635.6,286046997.8,N
1459672655.4,286046992.0,Y
1459672675.2,286046996.2,P
1459672695.1,286046994.7,P
1459672696.0,286046994.7,P
1459672715.8,286046996.0,Y
1459672735.7,286047001.8,P
1459672755.5,286047004.4,N
1459672775.3,286047007.3,N
1459672795.1,286047007.8,N
1459672815.9,286047011.3,N
1459672835.7,286047014.0,N
1459672855.5,286047011.5,N
1459672875.4,286047011.4,N
1459672895.2,286047008.2,N
1459672915.0,286047012.8,N
1459672915.9,286047012.8,N
1459672935.8,286047017.0,Y
1459672955.6,286047004.0,P
1459672975.4,286047007.0,P
1459672995.3,286047005.1,N
1459673015.1,286047001.9,N
1459673035.8,286047004.8,N
1459673055.7,286047006.8,Y
1459673075.5,286047000.9,P
1459673095.3,286047002.1,N
1459673115.2,286046999.9,N
1459673135.9,286047000.2,N
1459673155.7,286046997.1,N
1459673175.6,286046998.3,N
1459673195.4,286046999.6,N
1459673215.2,286046994.6,N
1459673235.1,286046988.7,Y
1459673236.0,286046988.7,P
1459673255.8,286046985.6,N
1459673275.6,286046986.1,N
1459673295.5,286046986.5,N
1459673315.3,286046988.1,N
1459673335.1,286046986.7,N
1459673355.9,286046984.2,Y
1459673375.7,286047000.9,P
1459673395.5,286047002.3,N
1459673415.4,286047001.4,N
1459673435.2,286047005.8,N
1459673455.0,286047004.1,N
1459673455.9,286047004.1,N
1459673475.8,286047006.6,N
1459673495.6,286047007.1,N
1459673515.4,286047007.2,N
1459673535.2,286047009.2,N
1459673555.1,286047008.4,N
1459673556.0,286047008.4,N
1459673575.8,286047006.8,N
1459673595.6,286047008.7,N
1459673615.5,286047008.0,N
1459673635.3,286047007.8,N
1459673655.1,286047007.8,N
1459673675.9,286047008.8,N
1459673695.7,286047004.7,N
1459673715.5,286047003.7,N
1459673735.4,286047003.9,N
1459673755.2,286047002.8,N
1459673775.0,286047003.5,N
1459673775.9,286047003.5,N
1459673795.7,286047005.7,N
1459673815.6,286047003.9,N
1459673835.4,286047003.7,N
1459673855.2,286047001.9,N
1459673875.1,286047002.6,N
1459673876.0,286047002.6,N
1459673895.8,286047005.8,N
1459673915.6,286047006.1,N
1459673935.5,286047003.5,N
1459673955.3,286047005.8,N
1459673975.1,286047009.2,Y
1459673995.9,286047002.4,P
